Location: Champignolles
(47.0543°N, 4.5663°E)
Time: 20:24:35
(UTC+00:00)

Cosmos 2181 Rocket - Visible Passes

Search period start: 13 April 2021 00:00
Search period end: 23 April 2021 00:00
Orbit: 951 x 1015 km, 82.9° (Epoch: 12 April)

Date Brightness Start Highest point End Pass type
(mag) Time Alt. Az. Time Alt. Az. Time Alt. Az.
13 Apr 6.2 00:10:04 12° E 00:11:51 14° ENE 00:14:46 10° NE visible
13 Apr 4.0 01:54:55 56° S 01:56:21 79° E 02:02:41 10° N visible
13 Apr 5.5 03:39:44 15° W 03:42:40 20° WNW 03:47:10 10° NNW visible
14 Apr 5.6 00:37:45 23° ESE 00:39:04 25° E 00:44:02 10° NNE visible
14 Apr 4.1 02:22:36 47° SW 02:24:09 60° WNW 02:30:24 10° N visible
14 Apr 5.9 04:09:19 10° WNW 04:11:08 11° NW 04:12:58 10° NW visible
15 Apr 4.8 01:05:27 40° ESE 01:06:30 44° E 01:12:24 10° NNE visible
15 Apr 4.8 02:50:17 29° WSW 02:52:10 35° WNW 02:57:52 10° N visible
15 Apr 6.2 23:48:17 12° E 23:49:39 13° ENE 23:52:21 10° NE visible
16 Apr 4.0 01:33:06 63° SSE 01:34:06 77° E 01:40:25 10° NNE visible
16 Apr 5.5 03:17:57 17° W 03:20:23 20° WNW 03:24:57 10° NNW visible
17 Apr 5.6 00:15:56 23° E 00:16:51 24° E 00:21:43 10° NNE visible
17 Apr 4.1 02:00:46 53° WSW 02:01:55 62° WNW 02:08:09 10° N visible
17 Apr 5.9 03:46:51 10° WNW 03:48:51 11° WNW 03:50:50 10° NW visible
18 Apr 4.7 00:43:34 41° ESE 00:44:16 42° E 00:50:07 10° NNE visible
18 Apr 4.8 02:28:24 31° W 02:29:54 35° WNW 02:35:37 10° N visible
18 Apr 6.2 23:26:21 12° E 23:27:26 13° ENE 23:29:54 10° NE visible
19 Apr 4.0 01:11:11 68° SE 01:11:52 75° E 01:18:08 10° NNE visible
19 Apr 5.4 02:56:01 18° W 02:58:06 21° WNW 03:02:42 10° NNW visible
19 Apr 5.6 23:53:58 23° E 23:54:38 23° E 23:59:23 10° NNE visible
20 Apr 4.0 01:38:47 57° WSW 01:39:39 63° WNW 01:45:53 10° N visible
20 Apr 6.0 03:24:25 10° WNW 03:26:33 12° WNW 03:28:42 10° NW visible
21 Apr 4.7 00:21:34 41° E 00:22:02 41° E 00:27:50 10° NNE visible
21 Apr 4.7 02:06:23 33° W 02:07:38 36° WNW 02:13:22 10° N visible
21 Apr 6.2 23:04:19 12° E 23:05:12 12° ENE 23:07:27 10° NE visible
22 Apr 3.9 00:49:09 70° SE 00:49:37 73° E 00:55:51 10° NNE visible
22 Apr 5.4 02:33:58 19° W 02:35:50 21° WNW 02:40:28 10° NNW visible
22 Apr 5.6 23:31:53 22° E 23:32:24 23° E 23:37:04 10° NNE visible
